Time,TemperatureF,DewpointF,PressureIn,WindDirection,WindDirectionDegrees,WindSpeedMPH,WindSpeedGustMPH,Humidity,HourlyPrecipIn,Conditions,Clouds,dailyrainin,SolarRadiationWatts/m^2,SoftwareType,DateUTC
2013-03-13 00:00:00,41.1,29.9,29.94,NW,324,7.0,10.0,64,0.00,,,0.89,0.00,VWS V14.01,2013-03-13 04:00:00,
2013-03-13 00:02:00,41.0,31.3,29.94,NW,313,6.0,10.0,68,0.00,,,0.00,0.00,VWS V14.01,2013-03-13 04:02:00,
2013-03-13 00:07:00,41.0,29.8,29.94,NW,309,3.0,9.0,64,0.00,,,0.00,0.00,VWS V14.01,2013-03-13 04:07:00,
2013-03-13 00:12:00,40.9,30.1,29.95,NW,322,4.0,8.0,65,0.00,,,0.00,0.00,VWS V14.01,2013-03-13 04:12:00,
2013-03-13 00:17:00,40.8,30.0,29.95,NW,309,12.0,12.0,65,0.00,,,0.00,0.00,VWS V14.01,2013-03-13 04:17:00,
2013-03-13 00:23:00,40.9,29.7,29.95,WNW,301,7.0,12.0,64,0.00,,,0.00,0.00,VWS V14.01,2013-03-13 04:23:00,
2013-03-13 00:28:00,40.9,29.7,29.94,NNW,347,5.0,10.0,64,0.00,,,0.00,0.00,VWS V14.01,2013-03-13 04:28:00,
2013-03-13 00:33:00,40.9,29.7,29.94,NW,311,9.0,15.0,64,0.00,,,0.00,0.00,VWS V14.01,2013-03-13 04:33:00,
2013-03-13 00:38:00,40.9,28.9,29.94,WNW,295,10.0,27.0,62,0.00,,,0.00,0.00,VWS V14.01,2013-03-13 04:38:00,
2013-03-13 00:43:00,40.9,28.5,29.94,NW,317,8.0,15.0,61,0.00,,,0.00,0.00,VWS V14.01,2013-03-13 04:43:00,
2013-03-13 00:48:00,40.8,28.4,29.94,NW,325,7.0,15.0,61,0.00,,,0.00,0.00,VWS V14.01,2013-03-13 04:48:00,
2013-03-13 00:53:00,40.7,28.3,29.94,WNW,302,8.0,15.0,61,0.00,,,0.00,0.00,VWS V14.01,2013-03-13 04:53:00,
2013-03-13 00:58:00,40.6,27.8,29.94,NW,313,3.0,16.0,60,0.00,,,0.00,0.00,VWS V14.01,2013-03-13 04:58:00,
2013-03-13 01:03:00,40.5,27.7,29.94,WNW,286,6.0,12.0,60,0.00,,,0.00,0.00,VWS V14.01,2013-03-13 05:03:00,
2013-03-13 01:09:00,40.4,27.6,29.94,NW,313,12.0,14.0,60,0.00,,,0.00,0.00,VWS V14.01,2013-03-13 05:09:00,
2013-03-13 01:14:00,40.4,27.6,29.94,NW,319,10.0,13.0,60,0.00,,,0.00,0.00,VWS V14.01,2013-03-13 05:14:00,
2013-03-13 01:19:00,40.4,27.6,29.94,NW,317,9.0,15.0,60,0.00,,,0.00,0.00,VWS V14.01,2013-03-13 05:19:00,
2013-03-13 01:24:00,40.3,27.5,29.94,NW,316,9.0,9.0,60,0.00,,,0.00,0.00,VWS V14.01,2013-03-13 05:24:00,
2013-03-13 01:29:00,40.2,27.4,29.94,NW,315,1.0,9.0,60,0.00,,,0.00,0.00,VWS V14.01,2013-03-13 05:29:00,
2013-03-13 01:34:00,40.1,27.4,29.94,West,279,2.0,9.0,60,0.00,,,0.00,0.00,VWS V14.01,2013-03-13 05:34:00,
2013-03-13 01:39:00,40.1,27.4,29.94,NW,315,0.0,3.0,60,0.00,,,0.00,0.00,VWS V14.01,2013-03-13 05:39:00,
2013-03-13 01:44:00,40.0,27.2,29.94,NW,309,0.0,3.0,60,0.00,,,0.00,0.00,VWS V14.01,2013-03-13 05:44:00,
2013-03-13 01:49:00,40.0,27.2,29.94,NW,324,0.0,3.0,60,0.00,,,0.00,0.00,VWS V14.01,2013-03-13 05:49:00,
2013-03-13 01:54:00,39.9,27.2,29.94,NW,324,0.0,2.0,60,0.00,,,0.00,0.00,VWS V14.01,2013-03-13 05:54:00,
2013-03-13 01:59:00,39.8,27.5,29.94,WNW,283,0.0,6.0,61,0.00,,,0.00,0.00,VWS V14.01,2013-03-13 05:59:00,
2013-03-13 02:05:00,39.8,27.5,29.94,NNW,334,0.0,6.0,61,0.00,,,0.00,0.00,VWS V14.01,2013-03-13 06:05:00,
2013-03-13 02:10:00,39.8,27.5,29.94,NNW,330,0.0,3.0,61,0.00,,,0.00,0.00,VWS V14.01,2013-03-13 06:10:00,
2013-03-13 02:15:00,39.7,27.8,29.94,NW,323,0.0,8.0,62,0.00,,,0.00,0.00,VWS V14.01,2013-03-13 06:15:00,
2013-03-13 02:20:00,39.6,27.7,29.94,NW,323,0.0,4.0,62,0.00,,,0.00,0.00,VWS V14.01,2013-03-13 06:20:00,
2013-03-13 02:25:00,39.6,28.1,29.94,WNW,298,7.0,9.0,63,0.00,,,0.00,0.00,VWS V14.01,2013-03-13 06:25:00,
2013-03-13 02:30:00,39.6,28.1,29.94,NW,312,3.0,6.0,63,0.00,,,0.00,0.00,VWS V14.01,2013-03-13 06:30:00,
2013-03-13 02:35:00,39.5,28.0,29.94,NNW,333,4.0,8.0,63,0.00,,,0.00,0.00,VWS V14.01,2013-03-13 06:35:00,
2013-03-13 02:40:00,39.5,28.0,29.93,West,281,0.0,7.0,63,0.00,,,0.00,0.00,VWS V14.01,2013-03-13 06:40:00,
2013-03-13 02:45:00,39.5,28.0,29.93,NW,319,3.0,5.0,63,0.00,,,0.00,0.00,VWS V14.01,2013-03-13 06:45:00,
2013-03-13 02:50:00,39.4,27.9,29.93,NW,319,1.0,3.0,63,0.00,,,0.00,0.00,VWS V14.01,2013-03-13 06:50:00,
2013-03-13 02:55:00,39.4,27.9,29.93,NW,321,3.0,3.0,63,0.00,,,0.00,0.00,VWS V14.01,2013-03-13 06:55:00,
2013-03-13 03:00:00,39.4,27.9,29.93,NW,321,0.0,3.0,63,0.00,,,0.00,0.00,VWS V14.01,2013-03-13 07:00:00,
2013-03-13 03:05:00,39.3,27.8,29.93,NW,321,0.0,0.0,63,0.00,,,0.00,0.00,VWS V14.01,2013-03-13 07:05:00,
2013-03-13 03:10:00,39.1,28.0,29.92,NW,321,0.0,0.0,64,0.00,,,0.00,0.00,VWS V14.01,2013-03-13 07:10:00,
2013-03-13 03:16:00,38.9,27.8,29.92,NW,321,0.0,0.0,64,0.00,,,0.00,0.00,VWS V14.01,2013-03-13 07:16:00,
2013-03-13 03:21:00,38.6,27.5,29.92,NNW,327,0.0,0.0,64,0.00,,,0.00,0.00,VWS V14.01,2013-03-13 07:21:00,
2013-03-13 03:26:00,38.4,27.3,29.92,NNW,327,0.0,0.0,64,0.00,,,0.00,0.00,VWS V14.01,2013-03-13 07:26:00,
2013-03-13 03:31:00,38.2,27.5,29.92,NNW,327,0.0,0.0,65,0.00,,,0.00,0.00,VWS V14.01,2013-03-13 07:31:00,
2013-03-13 03:36:00,38.1,27.4,29.92,NNW,327,0.0,0.0,65,0.00,,,0.00,0.00,VWS V14.01,2013-03-13 07:36:00,
2013-03-13 03:41:00,38.0,27.3,29.92,NNW,327,0.0,0.0,65,0.00,,,0.00,0.00,VWS V14.01,2013-03-13 07:41:00,
2013-03-13 03:46:00,37.8,27.1,29.92,NNW,327,0.0,0.0,65,0.00,,,0.00,0.00,VWS V14.01,2013-03-13 07:46:00,
2013-03-13 03:52:00,37.7,27.0,29.92,NNW,327,0.0,0.0,65,0.00,,,0.00,0.00,VWS V14.01,2013-03-13 07:52:00,
2013-03-13 03:57:00,37.5,26.8,29.92,NNW,327,0.0,0.0,65,0.00,,,0.00,0.00,VWS V14.01,2013-03-13 07:57:00,
2013-03-13 04:02:00,37.2,26.9,29.92,NNW,327,0.0,0.0,66,0.00,,,0.00,0.00,VWS V14.01,2013-03-13 08:02:00,
2013-03-13 04:08:00,37.0,26.7,29.92,NNW,327,0.0,0.0,66,0.00,,,0.00,0.00,VWS V14.01,2013-03-13 08:08:00,
2013-03-13 04:13:00,36.7,26.4,29.92,NNW,327,0.0,0.0,66,0.00,,,0.00,0.00,VWS V14.01,2013-03-13 08:13:00,
2013-03-13 04:18:00,36.3,26.0,29.92,NNW,327,0.0,0.0,66,0.00,,,0.00,0.00,VWS V14.01,2013-03-13 08:18:00,
2013-03-13 04:23:00,36.0,26.1,29.91,NNW,327,0.0,0.0,67,0.00,,,0.00,0.00,VWS V14.01,2013-03-13 08:23:00,
2013-03-13 04:28:00,35.7,25.8,29.91,NNW,327,0.0,0.0,67,0.00,,,0.00,0.00,VWS V14.01,2013-03-13 08:28:00,
2013-03-13 04:34:00,35.5,26.0,29.90,NNW,327,0.0,0.0,68,0.00,,,0.00,0.00,VWS V14.01,2013-03-13 08:34:00,
2013-03-13 04:39:00,35.2,26.1,29.90,NNW,327,0.0,0.0,69,0.00,,,0.00,0.00,VWS V14.01,2013-03-13 08:39:00,
2013-03-13 04:44:00,34.9,25.8,29.91,NNW,327,0.0,0.0,69,0.00,,,0.00,0.00,VWS V14.01,2013-03-13 08:44:00,
2013-03-13 04:49:00,34.6,25.8,29.91,NNW,327,0.0,0.0,70,0.00,,,0.00,0.00,VWS V14.01,2013-03-13 08:49:00,
2013-03-13 04:54:00,34.4,25.6,29.91,NNW,327,0.0,0.0,70,0.00,,,0.00,0.00,VWS V14.01,2013-03-13 08:54:00,
2013-03-13 04:59:00,34.3,25.5,29.90,NNW,327,0.0,0.0,70,0.00,,,0.00,0.00,VWS V14.01,2013-03-13 08:59:00,
2013-03-13 05:04:00,34.0,25.6,29.90,NNW,327,0.0,0.0,71,0.00,,,0.00,0.00,VWS V14.01,2013-03-13 09:04:00,
2013-03-13 05:09:00,33.8,25.7,29.90,NNW,327,0.0,0.0,72,0.00,,,0.00,0.00,VWS V14.01,2013-03-13 09:09:00,
2013-03-13 05:14:00,33.8,25.7,29.90,NNW,327,0.0,0.0,72,0.00,,,0.00,0.00,VWS V14.01,2013-03-13 09:14:00,
2013-03-13 05:20:00,33.8,25.7,29.91,NNW,327,0.0,0.0,72,0.00,,,0.00,0.00,VWS V14.01,2013-03-13 09:20:00,
2013-03-13 05:25:00,33.7,25.6,29.91,NNW,327,0.0,0.0,72,0.00,,,0.00,0.00,VWS V14.01,2013-03-13 09:25:00,
2013-03-13 05:30:00,33.6,25.5,29.91,NNW,327,0.0,0.0,72,0.00,,,0.00,0.00,VWS V14.01,2013-03-13 09:30:00,
2013-03-13 05:35:00,33.4,25.7,29.91,NNW,327,0.0,0.0,73,0.00,,,0.00,0.00,VWS V14.01,2013-03-13 09:35:00,
2013-03-13 05:40:00,33.2,25.5,29.91,NNW,327,0.0,0.0,73,0.00,,,0.00,0.00,VWS V14.01,2013-03-13 09:40:00,
2013-03-13 05:45:00,33.0,25.6,29.91,NNW,327,0.0,0.0,74,0.00,,,0.00,0.00,VWS V14.01,2013-03-13 09:45:00,
2013-03-13 05:50:00,32.8,25.4,29.91,NNW,327,0.0,0.0,74,0.00,,,0.00,0.00,VWS V14.01,2013-03-13 09:50:00,
2013-03-13 05:55:00,32.6,25.2,29.92,NNW,327,0.0,0.0,74,0.00,,,0.00,0.00,VWS V14.01,2013-03-13 09:55:00,
2013-03-13 06:00:00,32.4,25.0,29.92,NNW,327,0.0,0.0,74,0.00,,,0.00,0.00,VWS V14.01,2013-03-13 10:00:00,
2013-03-13 06:05:00,32.1,24.8,29.92,NNW,327,0.0,0.0,74,0.00,,,0.00,0.00,VWS V14.01,2013-03-13 10:05:00,
2013-03-13 06:10:00,31.9,24.9,29.92,NNW,327,0.0,0.0,75,0.00,,,0.00,0.00,VWS V14.01,2013-03-13 10:10:00,
2013-03-13 06:15:00,31.6,24.9,29.92,NNW,327,0.0,0.0,76,0.00,,,0.00,0.00,VWS V14.01,2013-03-13 10:15:00,
2013-03-13 06:21:00,31.4,24.7,29.92,NNW,327,0.0,0.0,76,0.00,,,0.00,0.00,VWS V14.01,2013-03-13 10:21:00,
2013-03-13 06:26:00,31.0,25.0,29.92,NNW,327,0.0,0.0,78,0.00,,,0.00,0.00,VWS V14.01,2013-03-13 10:26:00,
2013-03-13 06:32:00,30.8,25.4,29.92,NNW,327,0.0,0.0,80,0.00,,,0.00,0.00,VWS V14.01,2013-03-13 10:32:00,
2013-03-13 06:37:00,30.7,25.6,29.93,NNW,327,0.0,0.0,81,0.00,,,0.00,0.00,VWS V14.01,2013-03-13 10:37:00,
2013-03-13 06:42:00,30.6,25.8,29.93,NNW,327,0.0,0.0,82,0.00,,,0.00,0.00,VWS V14.01,2013-03-13 10:42:00,
2013-03-13 06:47:00,30.6,25.8,29.93,NNW,327,0.0,0.0,82,0.00,,,0.00,0.00,VWS V14.01,2013-03-13 10:47:00,
2013-03-13 06:52:00,30.5,25.7,29.92,NNW,327,0.0,0.0,82,0.00,,,0.00,0.00,VWS V14.01,2013-03-13 10:52:00,
2013-03-13 06:57:00,30.4,25.9,29.93,NNW,327,0.0,0.0,83,0.00,,,0.00,0.00,VWS V14.01,2013-03-13 10:57:00,
2013-03-13 07:01:00,30.3,25.8,29.92,NNW,327,0.0,0.0,83,0.00,,,0.00,0.00,VWS V14.01,2013-03-13 11:01:00,
2013-03-13 07:07:00,30.3,25.8,29.93,NNW,327,0.0,0.0,83,0.00,,,0.00,0.00,VWS V14.01,2013-03-13 11:07:00,
2013-03-13 07:12:00,30.3,25.5,29.93,NNW,327,0.0,0.0,82,0.00,,,0.00,0.00,VWS V14.01,2013-03-13 11:12:00,
2013-03-13 07:17:00,30.2,25.4,29.93,NNW,327,0.0,0.0,82,0.00,,,0.00,0.00,VWS V14.01,2013-03-13 11:17:00,
2013-03-13 07:22:00,30.2,25.4,29.93,NNW,327,0.0,0.0,82,0.00,,,0.00,0.00,VWS V14.01,2013-03-13 11:22:00,
2013-03-13 07:27:00,30.4,25.6,29.93,NNW,327,0.0,0.0,82,0.00,,,0.00,5.00,VWS V14.01,2013-03-13 11:27:00,
2013-03-13 07:32:00,30.5,25.7,29.93,NNW,327,0.0,0.0,82,0.00,,,0.00,9.00,VWS V14.01,2013-03-13 11:32:00,
2013-03-13 07:37:00,30.6,25.8,29.93,NNW,327,0.0,1.0,82,0.00,,,0.00,14.00,VWS V14.01,2013-03-13 11:37:00,
2013-03-13 07:42:00,30.7,26.2,29.93,NNW,327,0.0,0.0,83,0.00,,,0.00,19.00,VWS V14.01,2013-03-13 11:42:00,
2013-03-13 07:47:00,30.8,26.3,29.93,NNW,327,0.0,0.0,83,0.00,,,0.00,26.00,VWS V14.01,2013-03-13 11:47:00,
2013-03-13 07:52:00,30.8,26.3,29.93,NNW,327,0.0,1.0,83,0.00,,,0.00,26.00,VWS V14.01,2013-03-13 11:52:00,
2013-03-13 07:57:00,30.9,26.4,29.93,NNW,327,0.0,0.0,83,0.00,,,0.00,26.00,VWS V14.01,2013-03-13 11:57:00,
2013-03-13 08:02:00,31.0,26.7,29.93,NW,307,0.0,1.0,84,0.00,,,0.00,51.00,VWS V14.01,2013-03-13 12:02:00,
2013-03-13 08:08:00,31.1,26.8,29.93,NW,307,0.0,1.0,84,0.00,,,0.00,79.00,VWS V14.01,2013-03-13 12:08:00,
2013-03-13 08:13:00,31.3,27.0,29.93,West,281,0.0,1.0,84,0.00,,,0.00,51.00,VWS V14.01,2013-03-13 12:13:00,
2013-03-13 08:18:00,31.8,27.8,29.93,West,266,0.0,2.0,85,0.00,,,0.00,51.00,VWS V14.01,2013-03-13 12:18:00,
2013-03-13 08:23:00,32.4,28.1,29.93,West,266,0.0,0.0,84,0.00,,,0.00,65.00,VWS V14.01,2013-03-13 12:23:00,
2013-03-13 08:28:00,33.1,28.5,29.93,West,265,0.0,0.0,83,0.00,,,0.00,72.00,VWS V14.01,2013-03-13 12:28:00,
2013-03-13 08:33:00,33.7,28.5,29.93,West,265,0.0,1.0,81,0.00,,,0.00,84.00,VWS V14.01,2013-03-13 12:33:00,
2013-03-13 08:38:00,34.4,28.9,29.93,West,266,0.0,2.0,80,0.00,,,0.00,104.00,VWS V14.01,2013-03-13 12:38:00,
2013-03-13 08:43:00,35.1,28.9,29.93,West,266,0.0,1.0,78,0.00,,,0.00,109.00,VWS V14.01,2013-03-13 12:43:00,
2013-03-13 08:48:00,35.9,29.4,29.94,WSW,247,0.0,3.0,77,0.00,,,0.00,125.00,VWS V14.01,2013-03-13 12:48:00,
2013-03-13 08:53:00,36.6,29.4,29.94,WSW,240,0.0,4.0,75,0.00,,,0.00,153.00,VWS V14.01,2013-03-13 12:53:00,
2013-03-13 08:58:00,37.2,29.7,29.94,SW,219,1.0,5.0,74,0.00,,,0.00,160.00,VWS V14.01,2013-03-13 12:58:00,
2013-03-13 09:03:00,37.7,29.8,29.94,SW,223,5.0,5.0,73,0.00,,,0.00,172.00,VWS V14.01,2013-03-13 13:03:00,
2013-03-13 09:08:00,38.3,30.1,29.93,SSW,207,2.0,4.0,72,0.00,,,0.00,167.00,VWS V14.01,2013-03-13 13:08:00,
2013-03-13 09:13:00,39.0,30.8,29.93,SW,215,3.0,6.0,72,0.00,,,0.00,167.00,VWS V14.01,2013-03-13 13:13:00,
2013-03-13 09:18:00,39.2,30.2,29.93,WSW,246,0.0,5.0,70,0.00,,,0.00,58.00,VWS V14.01,2013-03-13 13:18:00,
2013-03-13 09:24:00,39.2,30.2,29.93,SSW,207,2.0,4.0,70,0.00,,,0.00,190.00,VWS V14.01,2013-03-13 13:24:00,
2013-03-13 09:29:00,39.6,30.6,29.93,SSW,213,3.0,7.0,70,0.00,,,0.00,211.00,VWS V14.01,2013-03-13 13:29:00,
2013-03-13 09:34:00,40.2,31.6,29.93,South,187,2.0,4.0,71,0.00,,,0.00,236.00,VWS V14.01,2013-03-13 13:34:00,
2013-03-13 09:39:00,40.4,31.8,29.93,SSE,151,3.0,6.0,71,0.00,,,0.00,260.00,VWS V14.01,2013-03-13 13:39:00,
2013-03-13 09:44:00,40.6,31.6,29.92,South,188,0.0,4.0,70,0.00,,,0.00,281.00,VWS V14.01,2013-03-13 13:44:00,
2013-03-13 09:49:00,40.8,31.1,29.92,SSW,210,4.0,5.0,68,0.00,,,0.00,302.00,VWS V14.01,2013-03-13 13:49:00,
2013-03-13 09:54:00,41.1,31.0,29.92,South,175,3.0,6.0,67,0.00,,,0.00,330.00,VWS V14.01,2013-03-13 13:54:00,
2013-03-13 09:59:00,41.8,31.7,29.92,SSW,207,4.0,6.0,67,0.00,,,0.00,362.00,VWS V14.01,2013-03-13 13:59:00,
2013-03-13 10:04:00,42.2,31.7,29.92,SW,217,2.0,3.0,66,0.00,,,0.00,388.00,VWS V14.01,2013-03-13 14:04:00,
2013-03-13 10:09:00,43.1,32.2,29.92,West,260,4.0,11.0,65,0.00,,,0.00,425.00,VWS V14.01,2013-03-13 14:09:00,
2013-03-13 10:14:00,43.7,32.7,29.92,WSW,242,1.0,6.0,65,0.00,,,0.00,443.00,VWS V14.01,2013-03-13 14:14:00,
2013-03-13 10:19:00,44.0,32.2,29.92,SW,226,4.0,10.0,63,0.00,,,0.00,79.00,VWS V14.01,2013-03-13 14:19:00,
2013-03-13 10:24:00,44.0,31.8,29.92,WSW,250,3.0,8.0,62,0.00,,,0.00,568.00,VWS V14.01,2013-03-13 14:24:00,
2013-03-13 10:30:00,44.2,31.6,29.92,West,265,0.0,6.0,61,0.00,,,0.00,142.00,VWS V14.01,2013-03-13 14:30:00,
2013-03-13 10:35:00,43.9,30.9,29.92,NW,304,7.0,11.0,60,0.00,,,0.00,181.00,VWS V14.01,2013-03-13 14:35:00,
2013-03-13 10:40:00,43.4,30.9,29.92,NNW,329,5.0,14.0,61,0.00,,,0.00,155.00,VWS V14.01,2013-03-13 14:40:00,
2013-03-13 10:45:00,43.1,30.6,29.92,West,259,3.0,8.0,61,0.00,,,0.00,98.00,VWS V14.01,2013-03-13 14:45:00,
2013-03-13 10:50:00,42.9,30.0,29.92,North,349,8.0,12.0,60,0.00,,,0.00,141.00,VWS V14.01,2013-03-13 14:50:00,
2013-03-13 10:55:00,43.2,30.7,29.92,NW,322,0.0,6.0,61,0.00,,,0.00,183.00,VWS V14.01,2013-03-13 14:55:00,
2013-03-13 11:00:00,43.3,30.0,29.92,WSW,255,2.0,8.0,59,0.00,,,0.00,146.00,VWS V14.01,2013-03-13 15:00:00,
2013-03-13 11:05:00,43.6,30.6,29.92,NNW,344,4.0,8.0,60,0.00,,,0.00,603.00,VWS V14.01,2013-03-13 15:05:00,
2013-03-13 11:10:00,45.2,31.3,29.91,West,260,3.0,9.0,58,0.00,,,0.00,599.00,VWS V14.01,2013-03-13 15:10:00,
2013-03-13 11:15:00,46.5,32.1,29.91,West,271,2.0,9.0,57,0.00,,,0.00,573.00,VWS V14.01,2013-03-13 15:15:00,
2013-03-13 11:20:00,47.2,31.0,29.91,West,273,0.0,12.0,53,0.00,,,0.00,624.00,VWS V14.01,2013-03-13 15:20:00,
2013-03-13 11:25:00,47.5,31.2,29.91,NW,307,12.0,12.0,53,0.00,,,0.00,278.00,VWS V14.01,2013-03-13 15:25:00,
2013-03-13 11:30:00,46.1,29.9,29.91,NNW,344,10.0,14.0,53,0.00,,,0.00,116.00,VWS V14.01,2013-03-13 15:30:00,
2013-03-13 11:35:00,44.2,30.0,29.91,North,355,10.0,17.0,57,0.00,,,0.00,146.00,VWS V14.01,2013-03-13 15:35:00,
2013-03-13 11:40:00,43.2,30.3,29.91,NW,317,7.0,12.0,60,0.00,,,0.00,204.00,VWS V14.01,2013-03-13 15:40:00,
2013-03-13 11:45:00,42.8,29.5,29.92,NW,306,9.0,18.0,59,0.00,,,0.00,141.00,VWS V14.01,2013-03-13 15:45:00,
2013-03-13 11:50:00,42.4,29.9,29.92,NNW,333,5.0,14.0,61,0.00,,,0.00,195.00,VWS V14.01,2013-03-13 15:50:00,
2013-03-13 11:55:00,42.5,28.4,29.92,NNW,339,3.0,18.0,57,0.00,,,0.00,348.00,VWS V14.01,2013-03-13 15:55:00,
2013-03-13 12:00:00,43.5,28.4,29.92,WNW,287,6.0,16.0,55,0.00,,,0.00,642.00,VWS V14.01,2013-03-13 16:00:00,
2013-03-13 12:05:00,44.2,27.7,29.91,NW,326,13.0,17.0,52,0.00,,,0.00,626.00,VWS V14.01,2013-03-13 16:05:00,
2013-03-13 12:10:00,44.5,26.5,29.91,WNW,288,6.0,15.0,49,0.00,,,0.00,580.00,VWS V14.01,2013-03-13 16:10:00,
2013-03-13 12:15:00,45.0,25.5,29.91,NW,309,6.0,21.0,46,0.00,,,0.00,545.00,VWS V14.01,2013-03-13 16:15:00,
2013-03-13 12:20:00,45.5,26.5,29.91,NW,304,3.0,12.0,47,0.00,,,0.00,522.00,VWS V14.01,2013-03-13 16:20:00,
2013-03-13 12:25:00,45.9,26.8,29.91,West,261,2.0,11.0,47,0.00,,,0.00,520.00,VWS V14.01,2013-03-13 16:25:00,
2013-03-13 12:30:00,46.2,25.5,29.91,WNW,282,2.0,17.0,44,0.00,,,0.00,540.00,VWS V14.01,2013-03-13 16:30:00,
2013-03-13 12:35:00,46.4,26.8,29.90,NW,325,4.0,18.0,46,0.00,,,0.00,587.00,VWS V14.01,2013-03-13 16:35:00,
2013-03-13 12:40:00,46.7,26.5,29.90,WSW,240,0.0,11.0,45,0.00,,,0.00,622.00,VWS V14.01,2013-03-13 16:40:00,
2013-03-13 12:45:00,47.1,26.9,29.90,NW,310,6.0,7.0,45,0.00,,,0.00,731.00,VWS V14.01,2013-03-13 16:45:00,
2013-03-13 12:50:00,48.2,28.9,29.90,NNW,328,11.0,13.0,47,0.00,,,0.00,761.00,VWS V14.01,2013-03-13 16:50:00,
2013-03-13 12:55:00,47.3,26.0,29.90,NW,309,3.0,21.0,43,0.00,,,0.00,348.00,VWS V14.01,2013-03-13 16:55:00,
2013-03-13 13:00:00,46.4,25.7,29.91,NW,304,9.0,17.0,44,0.00,,,0.00,294.00,VWS V14.01,2013-03-13 17:00:00,
2013-03-13 13:05:00,45.1,24.5,29.91,NNW,340,10.0,23.0,44,0.00,,,0.00,258.00,VWS V14.01,2013-03-13 17:05:00,
2013-03-13 13:10:00,44.5,24.5,29.91,North,360,12.0,17.0,45,0.00,,,0.00,320.00,VWS V14.01,2013-03-13 17:10:00,
2013-03-13 13:15:00,45.0,26.0,29.91,NW,323,6.0,7.0,47,0.00,,,0.00,707.00,VWS V14.01,2013-03-13 17:15:00,
2013-03-13 13:20:00,46.1,25.4,29.91,NW,324,13.0,13.0,44,0.00,,,0.00,735.00,VWS V14.01,2013-03-13 17:20:00,
2013-03-13 13:26:00,46.4,24.6,29.91,NNW,327,9.0,9.0,42,0.00,,,0.00,788.00,VWS V14.01,2013-03-13 17:26:00,
2013-03-13 13:31:00,47.0,25.1,29.90,NNW,328,11.0,13.0,42,0.00,,,0.00,881.00,VWS V14.01,2013-03-13 17:31:00,
2013-03-13 13:36:00,47.4,24.9,29.90,West,280,7.0,11.0,41,0.00,,,0.00,881.00,VWS V14.01,2013-03-13 17:36:00,
2013-03-13 13:41:00,46.8,23.2,29.90,NW,323,6.0,12.0,39,0.00,,,0.00,396.00,VWS V14.01,2013-03-13 17:41:00,
2013-03-13 13:46:00,46.0,23.6,29.90,WSW,256,7.0,10.0,41,0.00,,,0.00,378.00,VWS V14.01,2013-03-13 17:46:00,
2013-03-13 13:51:00,45.6,23.3,29.90,NW,316,6.0,6.0,41,0.00,,,0.00,343.00,VWS V14.01,2013-03-13 17:51:00,
2013-03-13 13:56:00,45.2,23.5,29.90,NNW,336,5.0,14.0,42,0.00,,,0.00,294.00,VWS V14.01,2013-03-13 17:56:00,
2013-03-13 14:01:00,44.9,23.2,29.90,NW,313,5.0,17.0,42,0.00,,,0.00,278.00,VWS V14.01,2013-03-13 18:01:00,
2013-03-13 14:06:00,44.5,23.4,29.90,WNW,294,5.0,12.0,43,0.00,,,0.00,283.00,VWS V14.01,2013-03-13 18:06:00,
2013-03-13 14:12:00,44.5,22.9,29.90,NW,311,8.0,14.0,42,0.00,,,0.00,313.00,VWS V14.01,2013-03-13 18:12:00,
2013-03-13 14:17:00,44.4,23.3,29.90,NNW,331,9.0,13.0,43,0.00,,,0.00,339.00,VWS V14.01,2013-03-13 18:17:00,
2013-03-13 14:22:00,44.6,24.0,29.90,WSW,256,7.0,7.0,44,0.00,,,0.00,301.00,VWS V14.01,2013-03-13 18:22:00,
2013-03-13 14:27:00,44.6,24.6,29.90,NW,305,10.0,15.0,45,0.00,,,0.00,415.00,VWS V14.01,2013-03-13 18:27:00,
2013-03-13 14:32:00,44.9,25.9,29.89,WNW,296,2.0,7.0,47,0.00,,,0.00,483.00,VWS V14.01,2013-03-13 18:32:00,
2013-03-13 14:37:00,45.0,25.0,29.89,NW,319,10.0,10.0,45,0.00,,,0.00,424.00,VWS V14.01,2013-03-13 18:37:00,
2013-03-13 14:42:00,44.9,23.8,29.90,WNW,299,3.0,12.0,43,0.00,,,0.00,432.00,VWS V14.01,2013-03-13 18:42:00,
2013-03-13 14:47:00,44.8,24.8,29.89,NW,321,8.0,8.0,45,0.00,,,0.00,352.00,VWS V14.01,2013-03-13 18:47:00,
2013-03-13 14:52:00,45.0,25.5,29.89,NNW,334,6.0,13.0,46,0.00,,,0.00,445.00,VWS V14.01,2013-03-13 18:52:00,
2013-03-13 14:57:00,45.0,25.0,29.89,NW,304,0.0,11.0,45,0.00,,,0.00,359.00,VWS V14.01,2013-03-13 18:57:00,
2013-03-13 15:02:00,45.0,25.0,29.89,WSW,257,0.0,10.0,45,0.00,,,0.00,341.00,VWS V14.01,2013-03-13 19:02:00,
2013-03-13 15:07:00,45.5,25.4,29.89,NW,311,6.0,10.0,45,0.00,,,0.00,543.00,VWS V14.01,2013-03-13 19:07:00,
2013-03-13 15:12:00,46.4,26.2,29.88,WSW,251,7.0,13.0,45,0.00,,,0.00,596.00,VWS V14.01,2013-03-13 19:12:00,
2013-03-13 15:18:00,46.7,26.5,29.88,WSW,249,4.0,11.0,45,0.00,,,0.00,450.00,VWS V14.01,2013-03-13 19:18:00,
2013-03-13 15:23:00,47.1,27.4,29.88,NW,319,0.0,14.0,46,0.00,,,0.00,640.00,VWS V14.01,2013-03-13 19:23:00,
2013-03-13 15:28:00,46.5,24.7,29.88,NW,304,6.0,19.0,42,0.00,,,0.00,171.00,VWS V14.01,2013-03-13 19:28:00,
2013-03-13 15:33:00,45.5,24.3,29.88,NW,320,11.0,13.0,43,0.00,,,0.00,125.00,VWS V14.01,2013-03-13 19:33:00,
2013-03-13 15:38:00,44.6,22.9,29.88,NNW,342,8.0,19.0,42,0.00,,,0.00,155.00,VWS V14.01,2013-03-13 19:38:00,
2013-03-13 15:43:00,44.1,24.1,29.89,WSW,255,5.0,13.0,45,0.00,,,0.00,239.00,VWS V14.01,2013-03-13 19:43:00,
2013-03-13 15:48:00,44.3,25.9,29.89,NW,325,5.0,13.0,48,0.00,,,0.00,589.00,VWS V14.01,2013-03-13 19:48:00,
2013-03-13 15:53:00,45.4,26.9,29.89,WNW,297,5.0,7.0,48,0.00,,,0.00,172.00,VWS V14.01,2013-03-13 19:53:00,
2013-03-13 15:58:00,45.5,26.5,29.88,NW,313,0.0,11.0,47,0.00,,,0.00,297.00,VWS V14.01,2013-03-13 19:58:00,
2013-03-13 16:03:00,45.3,26.8,29.89,NNW,338,11.0,12.0,48,0.00,,,0.00,262.00,VWS V14.01,2013-03-13 20:03:00,
2013-03-13 16:09:00,45.4,27.9,29.89,NW,318,1.0,9.0,50,0.00,,,0.00,585.00,VWS V14.01,2013-03-13 20:09:00,
2013-03-13 16:14:00,45.6,27.1,29.89,WNW,284,9.0,13.0,48,0.00,,,0.00,179.00,VWS V14.01,2013-03-13 20:14:00,
2013-03-13 16:19:00,45.0,27.0,29.89,NNW,327,5.0,12.0,49,0.00,,,0.00,100.00,VWS V14.01,2013-03-13 20:19:00,
2013-03-13 16:24:00,43.6,28.1,29.90,NW,318,8.0,17.0,54,0.00,,,0.00,76.00,VWS V14.01,2013-03-13 20:24:00,
2013-03-13 16:29:00,42.3,28.6,29.91,NW,318,6.0,15.0,58,0.00,,,0.00,47.00,VWS V14.01,2013-03-13 20:29:00,
2013-03-13 16:35:00,41.6,29.2,29.91,NW,310,13.0,17.0,61,0.00,,,0.00,142.00,VWS V14.01,2013-03-13 20:35:00,
2013-03-13 16:40:00,40.9,31.2,29.91,NW,306,18.0,18.0,68,0.00,,,0.00,315.00,VWS V14.01,2013-03-13 20:40:00,
2013-03-13 16:45:00,40.7,30.6,29.92,NNW,331,16.0,16.0,67,0.00,,,0.00,243.00,VWS V14.01,2013-03-13 20:45:00,
2013-03-13 16:50:00,40.0,31.4,29.92,NW,304,12.0,22.0,71,0.00,,,0.00,490.00,VWS V14.01,2013-03-13 20:50:00,
2013-03-13 16:55:00,39.4,31.8,29.92,NNW,345,8.0,17.0,74,0.00,,,0.00,420.00,VWS V14.01,2013-03-13 20:55:00,
2013-03-13 17:00:00,39.4,32.2,29.92,NW,304,8.0,12.0,75,0.00,,,0.00,390.00,VWS V14.01,2013-03-13 21:00:00,
2013-03-13 17:05:00,39.8,31.9,29.92,North,349,9.0,9.0,73,0.00,,,0.00,306.00,VWS V14.01,2013-03-13 21:05:00,
2013-03-13 17:10:00,39.7,31.1,29.92,WNW,303,11.0,12.0,71,0.00,,,0.00,74.00,VWS V14.01,2013-03-13 21:10:00,
2013-03-13 17:15:00,39.4,30.4,29.93,NW,318,5.0,10.0,70,0.00,,,0.00,83.00,VWS V14.01,2013-03-13 21:15:00,
2013-03-13 17:20:00,39.2,29.9,29.93,WNW,284,6.0,6.0,69,0.00,,,0.00,88.00,VWS V14.01,2013-03-13 21:20:00,
2013-03-13 17:25:00,39.2,30.2,29.93,SW,232,8.0,10.0,70,0.00,,,0.00,93.00,VWS V14.01,2013-03-13 21:25:00,
2013-03-13 17:30:00,39.4,30.4,29.93,NNW,345,7.0,7.0,70,0.00,,,0.00,383.00,VWS V14.01,2013-03-13 21:30:00,
2013-03-13 17:35:00,40.2,30.1,29.92,NNW,328,0.0,4.0,67,0.00,,,0.00,366.00,VWS V14.01,2013-03-13 21:35:00,
2013-03-13 17:41:00,40.7,29.9,29.92,WNW,288,4.0,10.0,65,0.00,,,0.00,281.00,VWS V14.01,2013-03-13 21:41:00,
2013-03-13 17:46:00,41.0,29.8,29.93,NW,325,0.0,13.0,64,0.00,,,0.00,227.00,VWS V14.01,2013-03-13 21:46:00,
2013-03-13 17:51:00,41.1,29.5,29.93,West,280,3.0,11.0,63,0.00,,,0.00,102.00,VWS V14.01,2013-03-13 21:51:00,
2013-03-13 17:57:00,40.8,28.8,29.93,NW,322,6.0,13.0,62,0.00,,,0.00,56.00,VWS V14.01,2013-03-13 21:57:00,
2013-03-13 18:02:00,40.5,28.5,29.93,NW,319,5.0,8.0,62,0.00,,,0.00,62.00,VWS V14.01,2013-03-13 22:02:00,
2013-03-13 18:07:00,40.3,27.9,29.93,WNW,298,5.0,7.0,61,0.00,,,0.00,60.00,VWS V14.01,2013-03-13 22:07:00,
2013-03-13 18:12:00,40.2,27.0,29.94,West,270,11.0,19.0,59,0.00,,,0.00,30.00,VWS V14.01,2013-03-13 22:12:00,
2013-03-13 18:17:00,40.3,26.7,29.94,NW,326,11.0,23.0,58,0.00,,,0.00,26.00,VWS V14.01,2013-03-13 22:17:00,
2013-03-13 18:22:00,39.5,26.4,29.95,NNW,337,10.0,22.0,59,0.00,,,0.00,70.00,VWS V14.01,2013-03-13 22:22:00,
2013-03-13 18:27:00,39.1,26.4,29.95,NW,311,13.0,16.0,60,0.00,,,0.00,111.00,VWS V14.01,2013-03-13 22:27:00,
2013-03-13 18:32:00,38.9,26.2,29.95,NW,324,4.0,13.0,60,0.00,,,0.00,53.00,VWS V14.01,2013-03-13 22:32:00,
2013-03-13 18:37:00,38.8,26.1,29.95,North,350,7.0,7.0,60,0.00,,,0.00,33.00,VWS V14.01,2013-03-13 22:37:00,
2013-03-13 18:42:00,38.7,26.0,29.95,WNW,299,5.0,5.0,60,0.00,,,0.00,26.00,VWS V14.01,2013-03-13 22:42:00,
2013-03-13 18:47:00,38.6,25.9,29.96,NW,321,9.0,9.0,60,0.00,,,0.00,21.00,VWS V14.01,2013-03-13 22:47:00,
2013-03-13 18:53:00,38.6,25.1,29.96,WNW,284,6.0,16.0,58,0.00,,,0.00,21.00,VWS V14.01,2013-03-13 22:53:00,
2013-03-13 18:57:00,38.7,24.8,29.96,NW,321,5.0,11.0,57,0.00,,,0.00,18.00,VWS V14.01,2013-03-13 22:57:00,
2013-03-13 19:03:00,38.7,24.4,29.97,NW,317,12.0,14.0,56,0.00,,,0.00,12.00,VWS V14.01,2013-03-13 23:03:00,
2013-03-13 19:08:00,38.7,23.5,29.97,North,355,10.0,14.0,54,0.00,,,0.00,9.00,VWS V14.01,2013-03-13 23:08:00,
2013-03-13 19:13:00,38.6,22.0,29.97,SW,223,2.0,26.0,51,0.00,,,0.00,5.00,VWS V14.01,2013-03-13 23:13:00,
2013-03-13 19:18:00,38.4,21.4,29.97,WNW,302,12.0,21.0,50,0.00,,,0.00,0.00,VWS V14.01,2013-03-13 23:18:00,
2013-03-13 19:23:00,38.2,21.2,29.98,WNW,303,6.0,10.0,50,0.00,,,0.00,0.00,VWS V14.01,2013-03-13 23:23:00,
2013-03-13 19:28:00,38.0,21.0,29.98,WNW,284,3.0,9.0,50,0.00,,,0.00,0.00,VWS V14.01,2013-03-13 23:28:00,
2013-03-13 19:33:00,37.8,20.8,29.98,North,355,8.0,13.0,50,0.00,,,0.00,0.00,VWS V14.01,2013-03-13 23:33:00,
2013-03-13 19:38:00,37.7,21.2,29.99,WNW,302,3.0,8.0,51,0.00,,,0.00,0.00,VWS V14.01,2013-03-13 23:38:00,
2013-03-13 19:43:00,37.4,21.4,29.99,North,5,3.0,8.0,52,0.00,,,0.00,0.00,VWS V14.01,2013-03-13 23:43:00,
2013-03-13 19:48:00,37.1,21.1,29.99,WNW,296,7.0,11.0,52,0.00,,,0.00,0.00,VWS V14.01,2013-03-13 23:48:00,
2013-03-13 19:53:00,36.9,21.4,29.99,West,273,0.0,6.0,53,0.00,,,0.00,0.00,VWS V14.01,2013-03-13 23:53:00,
2013-03-13 19:58:00,36.7,21.6,29.99,NW,304,2.0,10.0,54,0.00,,,0.00,0.00,VWS V14.01,2013-03-13 23:58:00,
2013-03-13 20:04:00,36.5,21.9,30.00,NW,311,7.0,12.0,55,0.00,,,0.00,0.00,VWS V14.01,2013-03-14 00:04:00,
2013-03-13 20:09:00,36.4,21.4,30.00,WNW,298,4.0,14.0,54,0.00,,,0.00,0.00,VWS V14.01,2013-03-14 00:09:00,
2013-03-13 20:14:00,36.3,21.7,30.00,NW,309,4.0,9.0,55,0.00,,,0.00,0.00,VWS V14.01,2013-03-14 00:14:00,
2013-03-13 20:19:00,36.1,22.4,30.00,WNW,288,2.0,7.0,57,0.00,,,0.00,0.00,VWS V14.01,2013-03-14 00:19:00,
2013-03-13 20:24:00,35.9,22.2,30.00,NW,319,5.0,11.0,57,0.00,,,0.00,0.00,VWS V14.01,2013-03-14 00:24:00,
2013-03-13 20:29:00,35.7,22.0,30.01,NW,313,3.0,14.0,57,0.00,,,0.00,0.00,VWS V14.01,2013-03-14 00:29:00,
2013-03-13 20:34:00,35.7,21.6,30.01,NNW,337,5.0,14.0,56,0.00,,,0.00,0.00,VWS V14.01,2013-03-14 00:34:00,
2013-03-13 20:39:00,35.7,21.1,30.01,NW,311,18.0,18.0,55,0.00,,,0.00,0.00,VWS V14.01,2013-03-14 00:39:00,
2013-03-13 20:44:00,35.6,21.5,30.01,NW,306,13.0,21.0,56,0.00,,,0.00,0.00,VWS V14.01,2013-03-14 00:44:00,
2013-03-13 20:49:00,35.5,22.2,30.01,West,263,2.0,17.0,58,0.00,,,0.00,0.00,VWS V14.01,2013-03-14 00:49:00,
2013-03-13 20:54:00,35.3,22.8,30.01,North,349,12.0,22.0,60,0.00,,,0.00,0.00,VWS V14.01,2013-03-14 00:54:00,
2013-03-13 20:59:00,35.0,22.9,30.01,NW,306,9.0,15.0,61,0.00,,,0.00,0.00,VWS V14.01,2013-03-14 00:59:00,
2013-03-13 21:05:00,34.7,23.0,30.02,NW,317,3.0,17.0,62,0.00,,,0.00,0.00,VWS V14.01,2013-03-14 01:05:00,
2013-03-13 21:10:00,34.4,23.1,30.01,NNW,331,6.0,16.0,63,0.00,,,0.00,0.00,VWS V14.01,2013-03-14 01:10:00,
2013-03-13 21:15:00,34.3,23.8,30.02,WNW,287,6.0,15.0,65,0.00,,,0.00,0.00,VWS V14.01,2013-03-14 01:15:00,
2013-03-13 21:20:00,33.9,24.1,30.02,WNW,300,4.0,16.0,67,0.00,,,0.00,0.00,VWS V14.01,2013-03-14 01:20:00,
2013-03-13 21:25:00,33.7,23.9,30.02,NW,309,8.0,16.0,67,0.00,,,0.00,0.00,VWS V14.01,2013-03-14 01:25:00,
2013-03-13 21:30:00,33.6,23.5,30.02,NW,322,5.0,19.0,66,0.00,,,0.00,0.00,VWS V14.01,2013-03-14 01:30:00,
2013-03-13 21:35:00,33.6,23.1,30.03,NW,324,10.0,15.0,65,0.00,,,0.00,0.00,VWS V14.01,2013-03-14 01:35:00,
2013-03-13 21:40:00,33.5,23.0,30.03,NW,325,7.0,9.0,65,0.00,,,0.00,0.00,VWS V14.01,2013-03-14 01:40:00,
2013-03-13 21:45:00,33.4,22.9,30.03,NW,314,3.0,18.0,65,0.00,,,0.00,0.00,VWS V14.01,2013-03-14 01:45:00,
2013-03-13 21:50:00,33.3,22.8,30.03,NNW,331,10.0,19.0,65,0.00,,,0.00,0.00,VWS V14.01,2013-03-14 01:50:00,
2013-03-13 21:55:00,33.2,23.1,30.04,NW,323,6.0,16.0,66,0.00,,,0.00,0.00,VWS V14.01,2013-03-14 01:55:00,
2013-03-13 22:00:00,33.0,23.2,30.04,WNW,299,9.0,12.0,67,0.00,,,0.00,0.00,VWS V14.01,2013-03-14 02:00:00,
2013-03-13 22:05:00,32.9,23.2,30.05,NW,326,7.0,7.0,67,0.00,,,0.00,0.00,VWS V14.01,2013-03-14 02:05:00,
2013-03-13 22:10:00,32.8,23.1,30.04,NW,316,3.0,5.0,67,0.00,,,0.00,0.00,VWS V14.01,2013-03-14 02:10:00,
2013-03-13 22:15:00,32.6,22.9,30.05,NNW,330,11.0,11.0,67,0.00,,,0.00,0.00,VWS V14.01,2013-03-14 02:15:00,
2013-03-13 22:20:00,32.6,22.9,30.05,West,273,2.0,3.0,67,0.00,,,0.00,0.00,VWS V14.01,2013-03-14 02:20:00,
2013-03-13 22:26:00,32.5,22.8,30.05,West,270,6.0,9.0,67,0.00,,,0.00,0.00,VWS V14.01,2013-03-14 02:26:00,
2013-03-13 22:31:00,32.4,22.7,30.04,West,262,0.0,10.0,67,0.00,,,0.00,0.00,VWS V14.01,2013-03-14 02:31:00,
2013-03-13 22:36:00,32.3,22.2,30.04,WNW,302,10.0,11.0,66,0.00,,,0.00,0.00,VWS V14.01,2013-03-14 02:36:00,
2013-03-13 22:41:00,32.4,21.6,30.04,NW,323,7.0,12.0,64,0.00,,,0.00,0.00,VWS V14.01,2013-03-14 02:41:00,
2013-03-13 22:46:00,32.4,21.6,30.04,NNW,337,14.0,16.0,64,0.00,,,0.00,0.00,VWS V14.01,2013-03-14 02:46:00,
2013-03-13 22:51:00,32.3,21.1,30.05,NW,326,10.0,14.0,63,0.00,,,0.00,0.00,VWS V14.01,2013-03-14 02:51:00,
2013-03-13 22:56:00,32.3,21.1,30.05,NNW,333,6.0,15.0,63,0.00,,,0.00,0.00,VWS V14.01,2013-03-14 02:56:00,
2013-03-13 23:01:00,32.3,20.8,30.05,NW,315,9.0,16.0,62,0.00,,,0.00,0.00,VWS V14.01,2013-03-14 03:01:00,
2013-03-13 23:07:00,32.3,20.8,30.05,NW,315,5.0,6.0,62,0.00,,,0.00,0.00,VWS V14.01,2013-03-14 03:07:00,
2013-03-13 23:12:00,32.2,20.7,30.05,NNW,339,5.0,10.0,62,0.00,,,0.00,0.00,VWS V14.01,2013-03-14 03:12:00,
2013-03-13 23:17:00,32.2,20.7,30.05,NW,316,2.0,5.0,62,0.00,,,0.00,0.00,VWS V14.01,2013-03-14 03:17:00,
2013-03-13 23:22:00,32.3,20.8,30.05,WNW,288,6.0,10.0,62,0.00,,,0.00,0.00,VWS V14.01,2013-03-14 03:22:00,
2013-03-13 23:27:00,32.4,20.9,30.05,NW,321,2.0,9.0,62,0.00,,,0.00,0.00,VWS V14.01,2013-03-14 03:27:00,
2013-03-13 23:32:00,32.4,20.9,30.05,NNW,329,9.0,10.0,62,0.00,,,0.00,0.00,VWS V14.01,2013-03-14 03:32:00,
2013-03-13 23:37:00,32.4,20.9,30.05,NW,319,5.0,8.0,62,0.00,,,0.00,0.00,VWS V14.01,2013-03-14 03:37:00,
2013-03-13 23:42:00,32.4,20.9,30.05,NW,315,4.0,11.0,62,0.00,,,0.00,0.00,VWS V14.01,2013-03-14 03:42:00,
2013-03-13 23:47:00,32.3,20.8,30.05,WNW,283,3.0,4.0,62,0.00,,,0.00,0.00,VWS V14.01,2013-03-14 03:47:00,
2013-03-13 23:53:00,32.3,20.8,30.05,NW,313,1.0,6.0,62,0.00,,,0.00,0.00,VWS V14.01,2013-03-14 03:53:00,
2013-03-13 23:58:00,32.1,20.6,30.05,NNW,332,4.0,6.0,62,0.00,,,0.00,0.00,VWS V14.01,2013-03-14 03:58:00,